Overview Statistics Trail Chart Weather Telemetry Raw packets
 

This is the latest recevied weather packets stored in our database for station/object KF6RAL-6. If no packets are shown the sender has not sent any weather packets the latest 10 day(s).

<< 20 21 22 23 24 25 26 >>
Time Temp. Humidity Pressure Rain* Wind** Luminosity Snow
1788487519 28.89° C 14% 1006.7 hPa 0 mm - - -
1788487098 28.89° C 15% 1007 hPa 0 mm - - -
1788486677 27.78° C 22% 1007.1 hPa 0 mm - - -
1788486256 28.33° C 16% 1006.5 hPa 0 mm - - -
1788485835 28.89° C 15% 1006.8 hPa 0 mm - - -
1788485414 29.44° C 17% 1006.6 hPa 0 mm - - -
1788484993 30° C 14% 1006.7 hPa 0 mm - - -
1788484573 30° C 15% 1007.2 hPa 0 mm - - -
1788484151 29.44° C 15% 1007 hPa 0 mm - - -
1788483730 28.89° C 20% 1007.1 hPa 0 mm - - -
1788483309 28.89° C 15% 1007.3 hPa 0 mm - - -
1788482889 28.89° C 17% 1007.3 hPa 0 mm - - -
1788482467 28.89° C 20% 1007.3 hPa 0 mm - - -
1788482046 28.89° C 25% 1007.4 hPa 0 mm - - -
1788481625 28.33° C 23% 1007.4 hPa 0 mm - - -
1788481204 27.22° C 24% 1007.8 hPa 0 mm - - -
1788480783 27.22° C 25% 1007.9 hPa 0 mm - - -
1788480362 27.22° C 27% 1008 hPa 0 mm - - -
1788479941 26.67° C 28% 1007.5 hPa 0 mm - - -
1788479520 26.67° C 28% 1008 hPa 0 mm - - -
1788479101 26.67° C 25% 1008.1 hPa 0 mm - - -
1788478678 26.67° C 25% 1008 hPa 0 mm - - -
1788478257 27.22° C 19% 1008 hPa 0 mm - - -
1788477836 26.11° C 24% 1008.3 hPa 0 mm - - -
1788477415 26.67° C 32% 1008.3 hPa 0 mm - - -

* Rain latest hour (hover to see other rain measurements)
** Current wind speed in m/s (hover to see current wind gust speed)